Weather in Lom

Bulgaria     43°49′32″N   23°14′15″E
temp.,
°C
wind,
m/s
gust,
m/s
humid.,
%
clouds,
%
prec.,
mm/h
press.,
hPa
HPBL,
m
11 april, sun
sun1100:00+7sse22535 0.0 102421
03:00+6se22550 0.0 102413
06:00+5ese11583 0.0 102510
09:00+8e12540 0.0 1026198
12:00+14e34440 0.0 1026960
15:00+16ese44370 0.0 10241498
18:00+16ese45415 0.0 10231397
21:00+10ese4860100 0.0 1024121
12 april, mon
mon1200:00+8se386574 0.0 1024131
03:00+7e226292 0.0 102425
06:00+8ene1257100 0.0 102351
09:00+9ese225594 0.0 1024242
12:00+14ene22495 0.0 1022699
15:00+18e224512 0.0 10201001
18:00+18e224861 0.0 1018961
21:00+13e336418 0.0 101937
13 april, tue
tue1300:00+11ese3467100 0.0 101956
03:00+10ese227443 0.0 101812
06:00+9nne1174100 0.0 101810
09:00+11nne1166100 0.0 1018118
12:00+15ene335498 0.1 1017569
15:00+19ene445094 0.1 10151066
18:00+13nw3587100 1.6 1013112
21:00+12w2294100 2.8 101347
14 april, wed
wed1400:00+11wsw1196100 2.9 101354
03:00+11w2597100 3.5 1012195
06:00+8wnw9138796 0.1 1012509
09:00+7nw81479100 0.2 1014699
12:00+9wnw11136486 0.0 1014965
15:00+10wnw10125624 0.0 10141301
18:00+9wnw9126179 0.0 10141340
21:00+6w814645 0.0 1016873
15 april, thu
thu1500:00+5w9156452 0.0 1017835
03:00+5w81366100 0.0 1018890
06:00+4w8136540 0.0 1018929
09:00+6w913665 0.0 10191294
12:00+8w9125196 0.0 10201902
15:00+9wnw9134799 0.0 10192138
18:00+9wnw812535 0.0 10192054
21:00+6wnw613665 0.0 1020578